Skip Page Navigation
NASA JPL Caltech
NASA Logo - Jet Propulsion Laboratory + View the NASA Portal
+ Center for Near-Earth Object Studies
JPL Home Earth Solar System Stars & Galaxies Technology
JPL Solar System Dynamics
BODIES ORBITS EPHEMERIDES TOOLS PHYSICAL DATA DISCOVERY FAQ SITE MAP
JPL Small-Body Database Browser
Search: [ help ]  
134152 (2005 AF60)
Classification: Main-belt Asteroid          SPK-ID: 2134152
Ephemeris | Orbit Diagram | Orbital Elements | Mission Design | Physical Parameters | Discovery Circumstances ]

[ show orbit diagram ]
Orbital Elements at Epoch 2459000.5 (2020-May-31.0) TDB
Reference: JPL 20 (heliocentric ecliptic J2000)
 Element Value Uncertainty (1-sigma)   Units 
e .05551204567274631 4.6154e-08  
a 2.910803846011717 2.6371e-08 au
q 2.749219169967509 1.3483e-07 au
i 2.711142302987637 5.1972e-06 deg
node 53.44000516539459 0.00011533 deg
peri 20.8401404656056 0.00012849 deg
M 80.55481098063836 5.5485e-05 deg
tp 2458594.611432259015
(2019-Apr-21.11143226)
0.00027898 TDB
period 1813.918779126363
4.97
2.465e-05
6.749e-08
d
yr
n .1984653360132181 2.697e-09 deg/d
Q 3.072388522055924 2.7834e-08 au
  Orbit Determination Parameters
   # obs. used (total)      370  
   data-arc span      6930 days (18.97 yr)  
   first obs. used      2001-05-01  
   last obs. used      2020-04-21  
   planetary ephem.      DE431  
   SB-pert. ephem.      SB431-N16  
   condition code      0  
   norm. resid. RMS      .59797  
   source      ORB  
   producer      Otto Matic  
   solution date      2020-May-20 22:17:16  

Additional Information
 Earth MOID = 1.76424 au 
 Jupiter MOID = 2.07601 au 
 T_jup = 3.279 
[ show covariance matrix ]

Ephemeris | Orbit Diagram | Orbital Elements | Mission Design | Physical Parameters | Discovery Circumstances ]

Physical Parameter Table
Parameter Symbol Value Units Sigma Reference Notes
absolute magnitude H 16.0   n/a MPO453826  

134152 (2005 AF60)          Discovered 2005-Jan-15 by Spacewatch at Kitt Peak
Reference: 20060711/Numbers.arcLast Updated: 2006-07-17

Alternate Designations
 2005 AF60 = 2003 SX242 
Ephemeris | Orbit Diagram | Orbital Elements | Mission Design | Physical Parameters | Discovery Circumstances ]
ABOUT SSD CREDITS/AWARDS PRIVACY/COPYRIGHT GLOSSARY LINKS
FirstGov 2020-Oct-25 22:27 UT
(server date/time)  
NASA Home Page
Site Manager:   Ryan S. Park
Webmaster  Alan B. Chamberlin